Location: Chamerau
(49.1969°N, 12.7525°E)
Time: 04:33:28
(UTC+00:00)

YAOGAN 1 - Pass Details

Date: 18 September 2020
Orbit: 618 x 620 km, 97.9° (Epoch: 29 October)

Event Time Altitude Azimuth Distance (km) Brightness Sun altitude
Rises 18:22:08 0° 188° (S) 2,886 5.9 -11.7°
Reaches altitude 10° 18:24:28 10° 197° (SSW) 1,985 5.2 -12.0°
Maximum altitude 18:28:25 34° 263° (W) 1,025 4.3 -12.6°
Drops below altitude 10° 18:32:24 10° 330° (NNW) 2,000 5.9 -13.3°
Sets 18:34:46 0° 339° (NNW) 2,911 6.6 -13.6°
